Temp
67 66 65 64 62 61 61 60 59 59 59 58 56 56 58 58 59 62 63 64 64 64 62 60 60 59 58 60 59 58 56 59
68 65 63 62 60 60 60 59 60 59 58 56 56 56 56 56 56 57 61 63 63 63 62 59 59 60 61 61 60 60 57 58
63 63 60 60 61 62 61 60 60 60 60 59 58 57 56 56 57 56 58 62 63 63 62 59 59 60 61 61 62 57 56 60
62 62 58 60 61 61 60 60 60 60 57 55 55 55 55 54 55 56 58 61 62 62 61 60 59 57 59 61 62 62 58 54
63 62 59 59 59 60 59 61 60 60 56 55 55 54 53 55 55 56 58 61 61 61 62 60 59 58 60 60 62 63 60 57
63 62 61 61 59 58 60 60 59 59 56 56 54 53 53 53 55 55 56 58 59 61 60 60 59 59 58 57 58 59 60 58
65 65 63 59 58 59 59 58 58 59 56 55 55 56 55 52 54 54 55 56 56 58 59 58 58 57 56 55 56 58 57 58
63 61 59 56 57 58 58 58 57 58 56 55 57 57 56 52 55 55 55 54 55 56 58 57 57 58 57 56 56 57 57 58
63 63 60 57 57 58 58 57 57 58 57 55 59 59 55 54 54 57 56 56 57 56 57 59 59 59 58 58 57 57 56 56
64 63 59 58 57 56 56 57 58 59 59 56 58 58 57 54 54 57 55 56 58 57 57 57 58 58 58 58 56 56 56 56
64 62 60 59 58 57 57 57 57 59 60 58 56 56 56 55 54 55 53 54 56 55 55 56 57 58 58 57 58 58 57 56
60 62 61 60 59 57 57 57 57 58 60 60 57 56 56 55 54 54 54 54 55 56 56 56 56 56 56 56 58 59 57 58
59 61 61 58 57 57 56 57 57 58 59 60 58 57 57 56 55 54 54 54 55 56 56 56 57 57 56 56 56 57 56 56
60 60 59 57 56 55 56 56 56 57 58 59 58 56 56 57 56 54 54 54 54 56 56 56 56 57 56 56 57 57 56 56
57 56 56 57 58 58 57 57 58 57 57 57 58 56 56 56 57 56 55 55 55 55 56 56 56 57 57 57 57 56 56 56
56 54 54 55 55 57 58 58 58 58 57 57 56 57 57 57 56 56 56 56 56 56 55 56 56 56 57 57 58 57 56 56
52 51 51 51 53 52 53 55 56 59 58 57 58 57 57 57 57 57 56 56 56 56 55 55 55 57 50 47 53 57 57 56
48 47 47 48 49 50 49 51 54 56 58 59 59 58 57 58 59 58 58 58 57 56 56 56 55 56 47 46 45 56 56 56
45 45 44 44 48 50 50 51 51 51 50 51 51 52 54 58 58 58 58 58 58 58 58 58 57 57 46 45 44 53 56 56
MSLP
1001.88 1002.54 1003.16 1003.95 1005.06 1005.91 1006.55 1007.26 1007.82 1008.48 1008.92 1009.36 1009.88 1010.19 1010.28 1010.60 1010.84 1010.80 1011.11 1011.46 1012.04 1012.35 1012.94 1013.67 1014.40 1015.16 1015.80 1016.13 1016.81 1017.69 1018.24 1018.77
1001.07 1001.89 1002.83 1003.66 1004.88 1005.68 1006.31 1007.04 1007.70 1008.31 1008.78 1009.29 1009.92 1010.06 1010.25 1010.61 1010.94 1011.03 1010.92 1011.13 1011.52 1011.93 1012.68 1013.54 1014.05 1014.89 1015.24 1015.89 1016.68 1017.08 1018.23 1018.71
1000.71 1001.72 1002.72 1003.05 1003.90 1005.01 1005.92 1006.64 1007.25 1007.93 1008.35 1008.86 1009.44 1009.81 1010.08 1010.35 1010.74 1010.90 1010.94 1010.94 1010.89 1011.56 1012.26 1012.79 1014.12 1014.79 1015.47 1015.81 1015.93 1017.11 1017.96 1018.40
1000.48 1001.30 1001.98 1002.93 1003.62 1004.31 1004.97 1005.92 1006.67 1007.47 1008.17 1008.68 1009.33 1009.73 1010.06 1010.38 1010.55 1010.74 1010.84 1010.79 1010.93 1011.26 1011.62 1012.63 1013.61 1014.54 1014.64 1015.62 1015.68 1016.28 1017.24 1018.48
1000.00 1000.68 1001.70 1002.27 1002.88 1003.98 1004.59 1005.52 1006.32 1007.12 1007.81 1008.26 1008.59 1009.13 1009.74 1010.07 1010.24 1010.58 1010.59 1010.51 1010.61 1011.32 1011.34 1012.16 1012.77 1014.07 1014.64 1015.14 1015.75 1015.98 1016.81 1017.69
999.67 999.90 1000.22 1001.25 1002.45 1003.30 1004.20 1005.30 1006.18 1006.87 1007.49 1007.81 1008.19 1008.88 1009.30 1009.71 1010.08 1010.51 1010.42 1010.52 1010.69 1010.94 1011.41 1011.72 1012.63 1013.63 1014.08 1014.69 1015.80 1015.76 1016.35 1017.40
998.64 998.82 1000.33 1001.50 1002.43 1003.24 1004.05 1005.03 1005.89 1006.48 1007.18 1007.54 1007.92 1008.51 1009.00 1009.61 1009.86 1010.21 1010.50 1010.69 1010.77 1010.91 1011.17 1012.01 1012.42 1012.68 1014.03 1014.62 1015.51 1015.72 1016.60 1016.82
998.06 998.93 999.99 1001.14 1001.97 1002.64 1003.73 1004.58 1005.38 1006.04 1006.86 1007.30 1007.64 1008.14 1008.70 1009.32 1009.54 1009.94 1010.32 1010.77 1011.00 1011.08 1011.29 1011.82 1012.49 1013.17 1014.04 1014.96 1015.53 1016.36 1016.47 1016.98
997.10 997.73 998.90 999.91 1001.10 1002.09 1003.09 1003.96 1004.85 1005.57 1006.50 1007.05 1007.40 1007.88 1008.57 1009.12 1009.32 1009.66 1010.03 1010.45 1010.93 1011.41 1011.57 1012.10 1012.70 1013.26 1014.05 1014.74 1015.38 1015.92 1015.81 1016.34
996.06 996.88 998.13 999.46 1000.67 1001.31 1002.22 1003.32 1004.44 1005.23 1006.06 1006.69 1007.08 1007.64 1008.14 1008.72 1009.15 1009.40 1009.88 1010.24 1010.70 1011.32 1011.86 1012.26 1012.76 1013.17 1013.70 1014.33 1014.81 1015.18 1015.49 1016.23
995.46 996.63 997.59 998.81 1000.39 1001.30 1002.28 1003.15 1004.03 1004.91 1005.78 1006.37 1006.71 1007.29 1007.89 1008.33 1008.86 1009.27 1009.77 1010.27 1010.68 1011.06 1011.58 1012.06 1012.49 1012.92 1013.45 1014.04 1014.56 1014.98 1015.44 1015.72
996.76 997.24 998.24 999.22 1000.42 1001.35 1002.11 1002.99 1003.79 1004.54 1005.24 1005.91 1006.44 1006.89 1007.46 1008.05 1008.45 1008.93 1009.43 1009.93 1010.43 1010.97 1011.39 1011.86 1012.24 1012.65 1013.14 1013.61 1013.98 1014.44 1015.00 1015.31
997.15 998.38 998.88 999.66 1000.67 1001.53 1002.17 1002.76 1003.43 1004.17 1004.96 1005.67 1006.22 1006.55 1007.00 1007.54 1008.07 1008.44 1008.97 1009.56 1010.10 1010.60 1011.16 1011.62 1011.95 1012.35 1012.81 1013.22 1013.55 1013.76 1014.13 1014.53
998.37 999.20 999.83 1000.56 1001.49 1002.22 1002.62 1003.23 1003.94 1004.66 1005.28 1005.75 1006.29 1006.69 1007.02 1007.17 1007.62 1008.22 1008.65 1009.06 1009.54 1010.02 1010.53 1010.97 1011.38 1011.73 1012.08 1012.38 1012.68 1013.12 1013.56 1013.82
1000.04 1000.27 1000.80 1001.26 1001.81 1002.41 1002.96 1003.44 1003.90 1004.37 1004.93 1005.41 1005.83 1006.20 1006.56 1006.95 1007.23 1007.74 1008.33 1008.83 1009.25 1009.56 1009.81 1010.19 1010.57 1010.96 1011.18 1011.50 1011.91 1012.30 1012.63 1012.86
1002.19 1002.48 1002.53 1002.57 1002.88 1003.22 1003.10 1003.45 1003.68 1003.84 1004.17 1004.78 1005.43 1006.01 1006.37 1006.81 1007.22 1007.61 1008.03 1008.51 1008.92 1009.35 1009.62 1009.77 1009.91 1010.08 1010.23 1010.59 1010.96 1011.30 1011.67 1011.93
1004.24 1004.54 1003.75 1003.83 1004.40 1003.96 1004.59 1004.37 1004.14 1003.79 1003.94 1004.55 1005.28 1005.56 1005.93 1006.31 1006.71 1007.04 1007.40 1007.66 1007.97 1008.34 1008.70 1009.07 1009.27 1009.23 1009.36 1009.80 1010.25 1010.54 1010.71 1010.85
1006.41 1006.01 1005.67 1005.74 1005.79 1005.97 1005.94 1005.52 1004.71 1004.05 1004.49 1004.93 1005.17 1005.31 1005.45 1005.76 1006.05 1006.36 1006.64 1007.01 1007.23 1007.53 1007.72 1007.96 1008.02 1008.21 1008.58 1009.03 1009.48 1009.78 1009.85 1009.80
1008.35 1008.04 1007.43 1007.08 1006.98 1006.79 1006.77 1006.32 1005.90 1005.72 1005.81 1006.11 1006.32 1006.14 1005.98 1005.75 1005.69 1005.72 1005.98 1006.25 1006.29 1006.40 1006.47 1006.67 1007.07 1007.01 1007.59 1008.10 1008.55 1008.93 1008.82 1008.58
Wind_Speed
16 17 14 15 13 13 12 10 9 8 6 5 3 3 3 3 3 3 9 10 12 10 8 9 8 8 6 7 10 4 4 8
16 15 13 14 12 13 14 14 13 8 6 5 3 3 2 2 2 4 4 10 13 11 9 10 8 9 11 10 8 12 4 5
12 15 14 17 18 17 17 15 14 11 8 7 4 4 2 2 2 3 4 6 11 12 10 11 12 8 9 9 12 6 3 9
13 16 17 15 19 21 19 18 15 12 9 6 4 5 3 1 1 1 5 7 8 10 13 12 11 7 9 9 11 11 10 2
13 15 15 18 16 14 15 17 15 13 10 7 9 5 6 3 3 1 3 8 9 7 12 14 14 13 11 8 8 9 8 9
15 18 21 18 16 16 15 14 13 15 11 9 7 6 4 4 5 4 3 4 6 9 9 11 16 11 9 9 6 7 6 6
16 18 13 13 13 14 17 17 14 16 11 9 11 10 8 5 6 5 3 3 3 7 10 10 11 13 8 6 3 5 6 5
14 16 17 16 19 19 17 18 16 14 12 11 11 10 10 9 9 6 7 4 3 6 10 13 11 13 9 8 8 9 11 14
16 21 20 20 20 20 18 19 17 15 13 12 10 10 7 7 8 8 6 6 5 5 7 9 10 13 11 10 7 6 6 5
18 20 18 18 18 20 19 18 16 17 17 11 11 10 10 7 8 8 6 7 7 8 6 7 9 10 10 8 7 5 5 5
14 16 18 16 14 13 14 15 16 17 16 12 10 10 10 9 8 8 7 6 6 9 10 9 9 9 9 10 8 7 8 5
5 10 10 13 12 13 13 13 14 15 16 14 13 11 11 9 10 8 8 8 8 9 11 11 11 11 10 11 12 13 11 10
8 7 9 10 10 10 10 11 12 12 12 12 13 11 11 10 10 10 10 10 9 9 9 11 11 11 10 11 11 11 12 12
12 11 9 9 8 6 6 6 6 6 9 12 12 10 10 10 10 9 10 11 11 11 10 12 13 13 11 12 13 13 12 13
15 14 11 7 7 8 7 7 7 8 8 9 13 11 11 10 9 9 10 10 11 12 12 12 13 13 13 13 13 12 13 12
15 12 12 12 12 8 3 5 8 10 11 10 9 7 6 7 8 9 9 10 10 11 12 13 13 13 12 16 15 15 14 14
16 14 16 16 14 13 10 11 7 7 10 9 7 7 8 8 8 9 10 12 12 13 14 14 15 12 16 17 17 15 16 17
15 15 14 14 14 11 10 9 11 12 6 2 3 7 9 10 9 9 11 12 12 14 14 15 17 17 16 18 20 16 15 16
10 10 12 13 12 13 11 12 13 13 13 12 11 10 8 5 10 13 12 11 13 13 15 17 17 16 15 18 19 18 18 19
Wind_Direction
201 201 188 173 170 168 164 169 165 152 135 120 102 130 131 154 205 195 184 187 184 178 168 157 158 159 163 165 153 133 134 145
195 186 173 158 160 164 169 165 171 157 150 138 154 164 157 148 198 226 238 188 184 185 166 155 158 177 175 166 153 142 133 133
176 170 171 172 170 174 171 171 167 172 173 170 167 166 154 134 158 240 227 221 188 191 172 166 172 171 166 172 165 145 112 162
175 172 178 170 176 180 174 171 167 174 166 133 117 96 77 122 176 207 236 227 183 186 171 164 165 163 166 182 177 169 157 192
182 175 172 185 181 173 163 169 170 175 163 160 161 164 171 179 149 172 204 199 186 197 170 169 174 170 179 172 179 177 148 168
187 184 191 185 165 169 161 161 168 175 168 166 155 164 163 149 137 161 137 133 162 184 174 180 175 172 156 145 182 171 150 165
200 196 171 169 160 160 164 167 173 175 169 168 164 170 152 161 151 152 132 118 106 153 161 156 160 155 144 126 156 169 165 161
185 173 175 168 171 169 170 172 175 169 171 175 173 175 157 177 167 163 152 144 140 145 147 147 149 155 177 161 164 189 183 190
182 184 180 174 171 171 171 174 173 171 173 177 175 176 169 184 181 169 172 166 163 154 149 158 162 169 175 176 182 198 164 201
194 180 175 172 173 174 172 169 173 180 184 177 176 179 178 179 184 178 182 170 161 162 164 168 173 172 175 180 192 205 156 199
180 174 172 171 169 164 161 168 173 178 184 183 179 178 183 178 175 185 171 173 172 165 174 176 177 177 182 192 206 216 203 199
171 166 156 154 153 159 160 165 168 176 184 191 187 183 180 181 184 182 180 174 182 187 189 190 191 193 188 190 201 206 218 212
117 131 136 130 143 151 163 166 173 177 181 188 197 187 185 183 188 187 179 185 188 188 188 200 201 200 201 206 205 203 204 212
85 95 97 95 97 106 132 146 149 155 182 196 200 193 198 195 192 190 185 188 189 196 195 201 207 208 203 203 205 211 208 214
60 65 69 92 132 154 168 171 169 170 181 197 206 196 197 201 199 194 194 196 199 202 203 205 208 210 210 209 210 213 215 214
48 55 63 57 52 47 41 207 187 181 189 197 204 205 194 202 201 204 200 201 203 209 213 217 213 215 217 217 217 218 220 224
45 37 48 42 41 33 29 36 10 204 201 206 193 184 202 207 205 207 207 208 210 208 212 216 223 225 222 214 216 223 225 226
31 32 41 36 35 35 36 29 28 48 59 85 200 204 206 211 213 214 218 216 211 217 220 219 225 230 218 213 214 228 229 231
32 28 35 35 29 37 29 30 36 40 42 38 26 16 5 300 229 223 223 222 225 223 225 224 227 233 214 217 215 225 232 235